Time,TemperatureF,DewpointF,PressureIn,WindDirection,WindDirectionDegrees,WindSpeedMPH,WindSpeedGustMPH,Humidity,HourlyPrecipIn,Conditions,Clouds,dailyrainin,SoftwareType,DateUTC
2013-03-17 00:01:00,42.3,39.0,29.31,NNE,32,3.5,3.5,88,0.00,CLR,,0.27,WeatherDisplay:10.37,2013-03-17 00:01:00,
2013-03-17 00:06:00,42.2,38.3,29.31,ENE,62,2.3,2.3,86,0.00,CLR,,0.27,WeatherDisplay:10.37,2013-03-17 00:06:00,
2013-03-17 00:11:00,42.2,38.3,29.31,NNE,13,2.3,2.3,86,0.00,CLR,,0.27,WeatherDisplay:10.37,2013-03-17 00:11:00,
2013-03-17 00:16:00,42.1,37.9,29.31,NNW,331,4.6,4.6,85,0.00,RA,,0.00,WeatherDisplay:10.37,2013-03-17 00:16:00,
2013-03-17 00:21:00,42.0,37.5,29.31,ESE,106,3.5,3.5,84,0.00,RA,,0.00,WeatherDisplay:10.37,2013-03-17 00:21:00,
2013-03-17 00:26:00,41.7,37.5,29.31,East,92,1.1,1.1,85,0.00,CLR,,0.00,WeatherDisplay:10.37,2013-03-17 00:26:00,
2013-03-17 00:31:00,41.5,37.3,29.31,ESE,118,3.5,3.5,85,0.00,CLR,,0.00,WeatherDisplay:10.37,2013-03-17 00:31:00,
2013-03-17 00:36:00,41.3,37.1,29.31,ENE,67,2.3,2.3,85,0.00,CLR,,0.00,WeatherDisplay:10.37,2013-03-17 00:36:00,
2013-03-17 00:42:00,41.1,37.2,29.31,ENE,70,1.1,1.1,86,0.00,CLR,,0.00,WeatherDisplay:10.37,2013-03-17 00:42:00,
2013-03-17 00:47:00,40.9,37.3,29.32,East,98,1.1,1.1,87,0.00,CLR,,0.00,WeatherDisplay:10.37,2013-03-17 00:47:00,
2013-03-17 00:52:00,40.7,37.1,29.32,NE,46,1.1,0.0,87,0.00,CLR,,0.00,WeatherDisplay:10.37,2013-03-17 00:52:00,
2013-03-17 00:57:00,40.5,37.2,29.32,East,87,1.1,1.1,88,0.00,CLR,,0.00,WeatherDisplay:10.37,2013-03-17 00:57:00,
2013-03-17 01:02:00,40.3,37.0,29.32,ENE,69,1.1,0.0,88,0.00,CLR,,0.00,WeatherDisplay:10.37,2013-03-17 01:02:00,
2013-03-17 01:07:00,40.0,36.7,29.32,ENE,68,0.0,0.0,88,0.00,CLR,,0.00,WeatherDisplay:10.37,2013-03-17 01:07:00,
2013-03-17 01:12:00,39.9,36.9,29.32,ESE,114,1.1,1.1,89,0.00,CLR,,0.00,WeatherDisplay:10.37,2013-03-17 01:12:00,
2013-03-17 01:17:00,39.7,37.0,29.32,ESE,106,1.1,0.0,90,0.00,CLR,,0.00,WeatherDisplay:10.37,2013-03-17 01:17:00,
2013-03-17 01:22:00,39.6,36.9,29.31,East,82,1.1,0.0,90,0.00,CLR,,0.00,WeatherDisplay:10.37,2013-03-17 01:22:00,
2013-03-17 01:27:00,39.7,37.3,29.32,East,82,2.3,0.0,91,0.00,CLR,,0.00,WeatherDisplay:10.37,2013-03-17 01:27:00,
2013-03-17 01:32:00,39.8,37.4,29.31,WSW,240,0.0,0.0,91,0.00,CLR,,0.00,WeatherDisplay:10.37,2013-03-17 01:32:00,
2013-03-17 01:37:00,39.9,37.5,29.31,ESE,102,2.3,2.3,91,0.00,CLR,,0.00,WeatherDisplay:10.37,2013-03-17 01:37:00,
2013-03-17 01:42:00,40.0,37.6,29.31,NNW,346,0.0,0.1,91,0.00,CLR,,0.00,WeatherDisplay:10.37,2013-03-17 01:42:00,
2013-03-17 01:47:00,40.0,37.6,29.31,East,89,0.0,0.0,91,0.00,CLR,,0.00,WeatherDisplay:10.37,2013-03-17 01:47:00,
2013-03-17 01:52:00,40.0,37.6,29.32,ENE,67,0.0,0.0,91,0.00,CLR,,0.00,WeatherDisplay:10.37,2013-03-17 01:52:00,
2013-03-17 01:57:00,40.0,37.6,29.31,ENE,70,2.3,2.3,91,0.00,CLR,,0.00,WeatherDisplay:10.37,2013-03-17 01:57:00,
2013-03-17 02:02:00,40.1,37.7,29.32,North,9,1.1,1.1,91,0.00,CLR,,0.00,WeatherDisplay:10.37,2013-03-17 02:02:00,
2013-03-17 02:07:00,40.1,37.7,29.32,ESE,113,2.3,2.3,91,0.00,CLR,,0.00,WeatherDisplay:10.37,2013-03-17 02:07:00,
2013-03-17 02:12:00,40.1,37.4,29.31,ESE,123,1.1,1.1,90,0.00,CLR,,0.00,WeatherDisplay:10.37,2013-03-17 02:12:00,
2013-03-17 02:17:00,40.1,37.4,29.31,NNE,19,2.3,2.3,90,0.00,CLR,,0.00,WeatherDisplay:10.37,2013-03-17 02:17:00,
2013-03-17 02:22:00,40.0,37.3,29.31,ESE,104,1.1,1.1,90,0.00,CLR,,0.00,WeatherDisplay:10.37,2013-03-17 02:22:00,
2013-03-17 02:27:00,39.8,37.1,29.31,ESE,104,0.0,0.0,90,0.00,CLR,,0.00,WeatherDisplay:10.37,2013-03-17 02:27:00,
2013-03-17 02:33:00,39.6,36.9,29.31,WSW,239,1.1,1.1,90,0.00,CLR,,0.00,WeatherDisplay:10.37,2013-03-17 02:33:00,
2013-03-17 02:38:00,39.5,36.8,29.31,ESE,108,0.0,0.0,90,0.00,CLR,,0.00,WeatherDisplay:10.37,2013-03-17 02:38:00,
2013-03-17 02:43:00,39.2,36.5,29.31,WNW,283,0.0,0.2,90,0.00,CLR,,0.00,WeatherDisplay:10.37,2013-03-17 02:43:00,
2013-03-17 02:48:00,38.9,36.2,29.31,WNW,283,0.0,0.0,90,0.00,CLR,,0.00,WeatherDisplay:10.37,2013-03-17 02:48:00,
2013-03-17 02:53:00,38.6,36.2,29.31,WNW,282,0.0,0.0,91,0.00,CLR,,0.00,WeatherDisplay:10.37,2013-03-17 02:53:00,
2013-03-17 02:58:00,38.3,35.9,29.31,WNW,283,0.0,0.0,91,0.00,CLR,,0.00,WeatherDisplay:10.37,2013-03-17 02:58:00,
2013-03-17 03:03:00,38.1,35.7,29.31,WNW,282,0.0,0.0,91,0.00,CLR,,0.00,WeatherDisplay:10.37,2013-03-17 03:03:00,
2013-03-17 03:08:00,37.8,35.4,29.30,WNW,282,0.0,0.0,91,0.00,CLR,,0.00,WeatherDisplay:10.37,2013-03-17 03:08:00,
2013-03-17 03:13:00,37.5,35.4,29.30,WNW,283,0.0,0.0,92,0.00,CLR,,0.00,WeatherDisplay:10.37,2013-03-17 03:13:00,
2013-03-17 03:18:00,37.2,35.1,29.30,WNW,283,0.0,0.0,92,0.00,CLR,,0.00,WeatherDisplay:10.37,2013-03-17 03:18:00,
2013-03-17 03:23:00,36.9,34.8,29.30,WNW,283,0.0,0.0,92,0.00,CLR,,0.00,WeatherDisplay:10.37,2013-03-17 03:23:00,
2013-03-17 03:28:00,36.5,34.4,29.30,WNW,283,0.0,0.0,92,0.00,CLR,,0.00,WeatherDisplay:10.37,2013-03-17 03:28:00,
2013-03-17 03:33:00,36.2,34.4,29.30,WNW,283,0.0,0.0,93,0.00,CLR,,0.00,WeatherDisplay:10.37,2013-03-17 03:33:00,
2013-03-17 03:38:00,36.0,34.2,29.30,WNW,282,0.0,0.0,93,0.00,CLR,,0.00,WeatherDisplay:10.37,2013-03-17 03:38:00,
2013-03-17 03:43:00,35.8,34.0,29.31,WNW,282,0.0,0.0,93,0.00,CLR,,0.00,WeatherDisplay:10.37,2013-03-17 03:43:00,
2013-03-17 03:46:00,36.2,34.9,29.30,WNW,283,0.0,0.0,95,0.00,CLR,,0.00,WeatherDisplay:10.37,2013-03-17 03:46:00,
2013-03-17 03:47:00,36.2,34.9,29.30,WNW,282,0.0,0.0,95,0.00,CLR,,0.00,WeatherDisplay:10.37,2013-03-17 03:47:00,
2013-03-17 03:48:00,35.8,34.2,29.30,WNW,282,0.0,0.0,94,0.00,CLR,,0.00,WeatherDisplay:10.37,2013-03-17 03:48:00,
2013-03-17 03:49:00,36.2,34.9,29.30,WNW,283,0.0,0.0,95,0.00,CLR,,0.00,WeatherDisplay:10.37,2013-03-17 03:49:00,
2013-03-17 03:50:00,36.3,35.0,29.30,WNW,283,0.0,0.0,95,0.00,CLR,,0.00,WeatherDisplay:10.37,2013-03-17 03:50:00,
2013-03-17 03:51:00,36.3,35.0,29.30,WNW,282,0.0,0.0,95,0.00,CLR,,0.00,WeatherDisplay:10.37,2013-03-17 03:51:00,
2013-03-17 03:53:00,36.0,34.7,29.30,WNW,282,0.0,0.0,95,0.00,CLR,,0.00,WeatherDisplay:10.37,2013-03-17 03:53:00,
2013-03-17 03:58:00,36.1,34.8,29.30,WNW,282,0.0,0.0,95,0.00,CLR,,0.00,WeatherDisplay:10.37,2013-03-17 03:58:00,
2013-03-17 04:04:00,36.3,35.0,29.30,WNW,283,0.0,0.0,95,0.00,CLR,,0.00,WeatherDisplay:10.37,2013-03-17 04:04:00,
2013-03-17 04:09:00,36.3,35.0,29.30,WNW,283,0.0,0.0,95,0.00,CLR,,0.00,WeatherDisplay:10.37,2013-03-17 04:09:00,
2013-03-17 04:14:00,36.5,35.2,29.29,WNW,282,0.0,0.0,95,0.00,CLR,,0.00,WeatherDisplay:10.37,2013-03-17 04:14:00,
2013-03-17 04:19:00,36.8,35.8,29.30,West,281,0.0,0.0,96,0.00,CLR,,0.00,WeatherDisplay:10.37,2013-03-17 04:19:00,
2013-03-17 04:24:00,37.0,35.7,29.29,West,281,0.0,0.0,95,0.00,CLR,,0.00,WeatherDisplay:10.37,2013-03-17 04:24:00,
2013-03-17 04:29:00,37.1,35.8,29.29,West,281,0.0,0.0,95,0.00,CLR,,0.00,WeatherDisplay:10.37,2013-03-17 04:29:00,
2013-03-17 04:34:00,37.2,36.2,29.29,East,101,0.0,0.0,96,0.00,CLR,,0.00,WeatherDisplay:10.37,2013-03-17 04:34:00,
2013-03-17 04:39:00,37.4,36.1,29.29,East,101,0.0,0.0,95,0.00,CLR,,0.00,WeatherDisplay:10.37,2013-03-17 04:39:00,
2013-03-17 04:44:00,37.5,36.2,29.29,East,101,0.0,0.0,95,0.00,CLR,,0.00,WeatherDisplay:10.37,2013-03-17 04:44:00,
2013-03-17 04:49:00,37.6,36.3,29.29,East,101,0.0,0.0,95,0.00,CLR,,0.00,WeatherDisplay:10.37,2013-03-17 04:49:00,
2013-03-17 04:54:00,37.7,36.4,29.29,ESE,102,0.0,0.0,95,0.00,CLR,,0.00,WeatherDisplay:10.37,2013-03-17 04:54:00,
2013-03-17 04:59:00,37.8,36.5,29.28,East,101,0.0,0.0,95,0.00,CLR,,0.00,WeatherDisplay:10.37,2013-03-17 04:59:00,
2013-03-17 05:04:00,37.8,36.5,29.28,East,101,0.0,0.0,95,0.00,CLR,,0.00,WeatherDisplay:10.37,2013-03-17 05:04:00,
2013-03-17 05:09:00,37.7,36.4,29.28,ESE,102,0.0,0.0,95,0.00,CLR,,0.00,WeatherDisplay:10.37,2013-03-17 05:09:00,
2013-03-17 05:14:00,37.7,36.4,29.28,East,101,0.0,0.0,95,0.00,CLR,,0.00,WeatherDisplay:10.37,2013-03-17 05:14:00,
2013-03-17 05:19:00,37.7,36.4,29.28,ESE,102,0.0,0.0,95,0.00,CLR,,0.00,WeatherDisplay:10.37,2013-03-17 05:19:00,
2013-03-17 05:24:00,37.8,36.5,29.28,East,101,0.0,0.0,95,0.00,CLR,,0.00,WeatherDisplay:10.37,2013-03-17 05:24:00,
2013-03-17 05:29:00,37.8,36.5,29.28,East,101,0.0,0.0,95,0.00,CLR,,0.00,WeatherDisplay:10.37,2013-03-17 05:29:00,
2013-03-17 05:34:00,37.9,36.6,29.28,ESE,102,0.0,0.0,95,0.00,CLR,,0.00,WeatherDisplay:10.37,2013-03-17 05:34:00,
2013-03-17 05:39:00,38.0,36.7,29.28,East,101,0.0,0.0,95,0.00,CLR,,0.00,WeatherDisplay:10.37,2013-03-17 05:39:00,
2013-03-17 05:44:00,38.2,36.9,29.28,ESE,102,0.0,0.0,95,0.00,CLR,,0.00,WeatherDisplay:10.37,2013-03-17 05:44:00,
2013-03-17 05:49:00,38.4,37.1,29.28,East,101,0.0,0.0,95,0.00,CLR,,0.00,WeatherDisplay:10.37,2013-03-17 05:49:00,
2013-03-17 05:54:00,38.5,37.2,29.27,East,101,0.0,0.0,95,0.01,RA,,0.01,WeatherDisplay:10.37,2013-03-17 05:54:00,
2013-03-17 05:59:00,38.5,37.2,29.27,East,101,0.0,0.0,95,0.01,RA,,0.01,WeatherDisplay:10.37,2013-03-17 05:59:00,
2013-03-17 06:04:00,38.6,37.3,29.28,East,101,0.0,0.0,95,0.01,CLR,,0.01,WeatherDisplay:10.37,2013-03-17 06:04:00,
2013-03-17 06:09:00,38.7,37.4,29.27,ENE,76,0.0,0.1,95,0.01,CLR,,0.01,WeatherDisplay:10.37,2013-03-17 06:09:00,
2013-03-17 06:14:00,38.7,37.4,29.27,ENE,68,0.0,0.3,95,0.01,CLR,,0.01,WeatherDisplay:10.37,2013-03-17 06:14:00,
2013-03-17 06:19:00,38.9,37.6,29.27,NW,309,1.1,0.0,95,0.01,CLR,,0.01,WeatherDisplay:10.37,2013-03-17 06:19:00,
2013-03-17 06:24:00,39.0,37.7,29.27,East,89,3.5,3.5,95,0.01,CLR,,0.01,WeatherDisplay:10.37,2013-03-17 06:24:00,
2013-03-17 06:29:00,39.2,38.2,29.27,SE,131,1.1,1.1,96,0.01,CLR,,0.01,WeatherDisplay:10.37,2013-03-17 06:29:00,
2013-03-17 06:34:00,39.3,38.3,29.27,ESE,113,0.0,0.0,96,0.01,CLR,,0.01,WeatherDisplay:10.37,2013-03-17 06:34:00,
2013-03-17 06:39:00,39.4,38.4,29.27,NE,36,1.1,0.0,96,0.01,CLR,,0.01,WeatherDisplay:10.37,2013-03-17 06:39:00,
2013-03-17 06:44:00,39.5,38.5,29.27,East,91,0.0,0.0,96,0.01,CLR,,0.01,WeatherDisplay:10.37,2013-03-17 06:44:00,
2013-03-17 06:49:00,39.6,38.6,29.27,East,91,0.0,0.0,96,0.01,CLR,,0.01,WeatherDisplay:10.37,2013-03-17 06:49:00,
2013-03-17 06:54:00,39.7,38.7,29.27,East,101,0.0,0.0,96,0.00,CLR,,0.01,WeatherDisplay:10.37,2013-03-17 06:54:00,
2013-03-17 06:59:00,39.9,38.9,29.27,East,101,0.0,0.0,96,0.00,CLR,,0.01,WeatherDisplay:10.37,2013-03-17 06:59:00,
2013-03-17 07:04:00,40.1,39.1,29.27,ESE,110,0.0,0.1,96,0.00,CLR,,0.01,WeatherDisplay:10.37,2013-03-17 07:04:00,
2013-03-17 07:09:00,40.3,39.3,29.26,ESE,120,4.0,4.0,96,0.00,CLR,,0.01,WeatherDisplay:10.37,2013-03-17 07:09:00,
2013-03-17 07:14:00,40.5,39.4,29.27,ESE,113,1.1,1.1,96,0.00,CLR,,0.01,WeatherDisplay:10.37,2013-03-17 07:14:00,
2013-03-17 07:19:00,40.6,39.3,29.26,ESE,120,2.3,2.3,95,0.00,CLR,,0.01,WeatherDisplay:10.37,2013-03-17 07:19:00,
2013-03-17 07:24:00,40.8,39.5,29.26,NW,316,0.0,0.0,95,0.00,CLR,,0.01,WeatherDisplay:10.37,2013-03-17 07:24:00,
2013-03-17 07:29:00,41.1,39.8,29.26,ESE,105,2.3,0.0,95,0.00,CLR,,0.01,WeatherDisplay:10.37,2013-03-17 07:29:00,
2013-03-17 07:34:00,41.3,40.0,29.26,ENE,72,1.1,0.0,95,0.00,CLR,,0.01,WeatherDisplay:10.37,2013-03-17 07:34:00,
2013-03-17 07:39:00,41.5,40.2,29.26,ESE,109,1.1,0.0,95,0.00,CLR,,0.01,WeatherDisplay:10.37,2013-03-17 07:39:00,
2013-03-17 07:44:00,41.6,40.3,29.25,ESE,111,2.3,2.3,95,0.00,CLR,,0.01,WeatherDisplay:10.37,2013-03-17 07:44:00,
2013-03-17 07:49:00,41.8,40.5,29.25,SE,125,1.1,1.1,95,0.00,CLR,,0.01,WeatherDisplay:10.37,2013-03-17 07:49:00,
2013-03-17 07:54:00,42.0,40.7,29.25,SE,133,2.3,2.3,95,0.01,RA,,0.02,WeatherDisplay:10.37,2013-03-17 07:54:00,
2013-03-17 07:59:00,42.2,40.9,29.25,ENE,68,1.1,1.5,95,0.01,RA,,0.02,WeatherDisplay:10.37,2013-03-17 07:59:00,
2013-03-17 08:04:00,42.4,41.1,29.25,ESE,115,0.0,0.0,95,0.01,,,0.02,WeatherDisplay:10.37,2013-03-17 08:04:00,
2013-03-17 08:09:00,42.5,41.2,29.25,East,91,1.1,1.1,95,0.01,CLR,,0.02,WeatherDisplay:10.37,2013-03-17 08:09:00,
2013-03-17 08:14:00,42.6,41.3,29.25,ESE,103,1.1,1.1,95,0.01,CLR,,0.02,WeatherDisplay:10.37,2013-03-17 08:14:00,
2013-03-17 08:19:00,42.7,41.4,29.25,East,98,1.1,1.1,95,0.01,CLR,,0.02,WeatherDisplay:10.37,2013-03-17 08:19:00,
2013-03-17 08:24:00,42.8,41.5,29.24,WSW,250,2.3,2.3,95,0.01,CLR,,0.02,WeatherDisplay:10.37,2013-03-17 08:24:00,
2013-03-17 08:29:00,43.1,41.8,29.24,North,354,3.5,3.5,95,0.01,CLR,,0.02,WeatherDisplay:10.37,2013-03-17 08:29:00,
2013-03-17 08:34:00,43.4,41.8,29.24,East,81,3.5,3.5,94,0.01,CLR,,0.02,WeatherDisplay:10.37,2013-03-17 08:34:00,
2013-03-17 08:39:00,43.9,42.0,29.24,East,89,2.3,2.3,93,0.01,CLR,,0.02,WeatherDisplay:10.37,2013-03-17 08:39:00,
2013-03-17 08:44:00,44.1,41.9,29.24,East,84,3.5,3.5,92,0.01,CLR,,0.02,WeatherDisplay:10.37,2013-03-17 08:44:00,
2013-03-17 08:49:00,44.1,41.6,29.24,ENE,69,2.3,2.3,91,0.01,CLR,,0.02,WeatherDisplay:10.37,2013-03-17 08:49:00,
2013-03-17 08:54:00,44.2,41.7,29.24,NNE,12,2.3,2.3,91,0.00,CLR,,0.02,WeatherDisplay:10.37,2013-03-17 08:54:00,
2013-03-17 08:59:00,44.3,41.6,29.24,WNW,295,3.5,3.5,90,0.00,CLR,,0.02,WeatherDisplay:10.37,2013-03-17 08:59:00,
2013-03-17 09:04:00,44.3,41.6,29.24,ENE,70,3.5,3.5,90,0.00,CLR,,0.02,WeatherDisplay:10.37,2013-03-17 09:04:00,
2013-03-17 09:09:00,44.3,41.6,29.24,NE,50,2.3,2.3,90,0.00,CLR,,0.02,WeatherDisplay:10.37,2013-03-17 09:09:00,
2013-03-17 09:14:00,44.4,41.7,29.23,NE,49,3.5,3.5,90,0.00,CLR,,0.02,WeatherDisplay:10.37,2013-03-17 09:14:00,
2013-03-17 09:19:00,44.4,41.7,29.23,NNE,24,1.1,1.1,90,0.00,CLR,,0.02,WeatherDisplay:10.37,2013-03-17 09:19:00,
2013-03-17 09:24:00,44.5,41.7,29.23,NE,44,1.1,0.0,90,0.00,CLR,,0.02,WeatherDisplay:10.37,2013-03-17 09:24:00,
2013-03-17 09:29:00,44.5,41.7,29.23,SSE,156,3.5,3.5,90,0.00,CLR,,0.02,WeatherDisplay:10.37,2013-03-17 09:29:00,
2013-03-17 09:34:00,44.5,42.0,29.23,SSW,207,2.3,2.3,91,0.00,CLR,,0.02,WeatherDisplay:10.37,2013-03-17 09:34:00,
2013-03-17 09:39:00,44.6,42.1,29.23,East,84,2.3,2.3,91,0.00,CLR,,0.02,WeatherDisplay:10.37,2013-03-17 09:39:00,
2013-03-17 09:44:00,44.4,41.7,29.23,East,98,5.8,5.8,90,0.00,CLR,,0.02,WeatherDisplay:10.37,2013-03-17 09:44:00,
2013-03-17 09:49:00,44.3,41.8,29.23,ESE,103,4.6,4.6,91,0.00,CLR,,0.02,WeatherDisplay:10.37,2013-03-17 09:49:00,
2013-03-17 09:54:00,44.4,41.9,29.22,ESE,123,2.3,2.3,91,0.00,CLR,,0.02,WeatherDisplay:10.37,2013-03-17 09:54:00,
2013-03-17 09:59:00,44.5,42.0,29.22,East,82,3.5,3.5,91,0.00,CLR,,0.02,WeatherDisplay:10.37,2013-03-17 09:59:00,
2013-03-17 10:04:00,44.5,41.7,29.22,NE,41,5.8,5.8,90,0.00,CLR,,0.02,WeatherDisplay:10.37,2013-03-17 10:04:00,
2013-03-17 10:09:00,44.7,41.9,29.22,East,101,3.5,3.5,90,0.00,CLR,,0.02,WeatherDisplay:10.37,2013-03-17 10:09:00,
2013-03-17 10:14:00,44.8,42.0,29.22,NNE,23,2.3,2.3,90,0.00,CLR,,0.02,WeatherDisplay:10.37,2013-03-17 10:14:00,
2013-03-17 10:19:00,44.9,42.1,29.22,East,95,2.3,2.3,90,0.00,CLR,,0.02,WeatherDisplay:10.37,2013-03-17 10:19:00,
2013-03-17 10:24:00,44.9,41.9,29.22,East,79,2.3,2.3,89,0.00,CLR,,0.02,WeatherDisplay:10.37,2013-03-17 10:24:00,
2013-03-17 10:29:00,44.8,41.8,29.22,NNW,335,3.5,3.5,89,0.00,CLR,,0.02,WeatherDisplay:10.37,2013-03-17 10:29:00,
2013-03-17 10:34:00,44.6,41.8,29.22,ENE,63,3.5,3.5,90,0.01,RA,,0.02,WeatherDisplay:10.37,2013-03-17 10:34:00,
2013-03-17 10:39:00,44.4,41.7,29.22,SE,127,4.0,4.0,90,0.01,RA,,0.02,WeatherDisplay:10.37,2013-03-17 10:39:00,
2013-03-17 10:44:00,44.1,41.4,29.22,ENE,59,5.8,5.8,90,0.01,,,0.02,WeatherDisplay:10.37,2013-03-17 10:44:00,
2013-03-17 10:49:00,44.0,41.0,29.22,NE,47,3.5,3.5,89,0.01,CLR,,0.02,WeatherDisplay:10.37,2013-03-17 10:49:00,
2013-03-17 10:54:00,44.1,41.4,29.22,North,1,2.0,2.0,90,0.01,CLR,,0.02,WeatherDisplay:10.37,2013-03-17 10:54:00,
2013-03-17 10:59:00,44.2,41.5,29.22,ESE,113,2.3,2.3,90,0.01,CLR,,0.02,WeatherDisplay:10.37,2013-03-17 10:59:00,
2013-03-17 11:04:00,44.1,41.6,29.22,SE,127,2.3,2.3,91,0.02,RA,,0.03,WeatherDisplay:10.37,2013-03-17 11:04:00,
2013-03-17 11:09:00,44.2,42.0,29.21,NE,56,2.3,2.3,92,0.02,RA,,0.03,WeatherDisplay:10.37,2013-03-17 11:09:00,
2013-03-17 11:14:00,44.2,41.7,29.21,East,100,4.6,4.6,91,0.02,,,0.03,WeatherDisplay:10.37,2013-03-17 11:14:00,
2013-03-17 11:19:00,44.1,41.6,29.21,East,96,3.5,3.5,91,0.02,CLR,,0.03,WeatherDisplay:10.37,2013-03-17 11:19:00,
2013-03-17 11:24:00,44.0,41.5,29.21,ENE,68,1.1,1.1,91,0.02,CLR,,0.03,WeatherDisplay:10.37,2013-03-17 11:24:00,
2013-03-17 11:29:00,43.9,41.7,29.21,East,83,2.3,2.3,92,0.02,CLR,,0.03,WeatherDisplay:10.37,2013-03-17 11:29:00,
2013-03-17 11:34:00,43.8,41.6,29.21,NE,50,2.3,2.3,92,0.01,CLR,,0.03,WeatherDisplay:10.37,2013-03-17 11:34:00,
2013-03-17 11:39:00,43.7,41.5,29.21,NNE,23,0.0,0.2,92,0.01,CLR,,0.03,WeatherDisplay:10.37,2013-03-17 11:39:00,
2013-03-17 11:44:00,43.7,41.8,29.20,South,188,2.3,2.3,93,0.02,RA,,0.04,WeatherDisplay:10.37,2013-03-17 11:44:00,
2013-03-17 11:49:00,43.7,41.8,29.20,ESE,107,2.3,2.3,93,0.02,RA,,0.04,WeatherDisplay:10.37,2013-03-17 11:49:00,
2013-03-17 11:54:00,43.5,41.3,29.20,East,81,1.1,1.1,92,0.02,CLR,,0.04,WeatherDisplay:10.37,2013-03-17 11:54:00,
2013-03-17 11:59:00,43.5,41.6,29.20,East,81,2.3,2.3,93,0.02,CLR,,0.04,WeatherDisplay:10.37,2013-03-17 11:59:00,
2013-03-17 12:04:00,43.6,41.7,29.20,ENE,63,1.1,1.1,93,0.01,CLR,,0.04,WeatherDisplay:10.37,2013-03-17 12:04:00,
2013-03-17 12:09:00,43.7,41.8,29.20,ESE,106,2.3,2.3,93,0.01,CLR,,0.04,WeatherDisplay:10.37,2013-03-17 12:09:00,
2013-03-17 12:14:00,43.7,41.8,29.20,NE,40,2.3,2.3,93,0.02,RA,,0.05,WeatherDisplay:10.37,2013-03-17 12:14:00,
2013-03-17 12:19:00,43.7,41.8,29.19,East,84,3.5,3.5,93,0.02,RA,,0.05,WeatherDisplay:10.37,2013-03-17 12:19:00,
2013-03-17 12:24:00,43.7,41.8,29.19,West,271,1.1,1.1,93,0.02,CLR,,0.05,WeatherDisplay:10.37,2013-03-17 12:24:00,
2013-03-17 12:29:00,43.6,41.7,29.19,East,80,2.3,2.3,93,0.02,CLR,,0.05,WeatherDisplay:10.37,2013-03-17 12:29:00,
2013-03-17 12:34:00,43.4,41.5,29.19,ESE,112,4.6,4.6,93,0.02,CLR,,0.05,WeatherDisplay:10.37,2013-03-17 12:34:00,
2013-03-17 12:39:00,43.4,41.5,29.19,ENE,58,1.1,1.1,93,0.02,RA,,0.06,WeatherDisplay:10.37,2013-03-17 12:39:00,
2013-03-17 12:44:00,43.5,41.9,29.18,ENE,71,1.1,1.1,94,0.02,RA,,0.06,WeatherDisplay:10.37,2013-03-17 12:44:00,
2013-03-17 12:49:00,43.6,42.0,29.18,SE,145,3.5,3.5,94,0.02,,,0.06,WeatherDisplay:10.37,2013-03-17 12:49:00,
2013-03-17 12:54:00,43.6,42.0,29.18,East,79,2.3,2.3,94,0.02,CLR,,0.06,WeatherDisplay:10.37,2013-03-17 12:54:00,
2013-03-17 12:59:00,43.6,41.7,29.18,SE,133,1.1,1.1,93,0.02,CLR,,0.06,WeatherDisplay:10.37,2013-03-17 12:59:00,
2013-03-17 13:04:00,43.7,41.8,29.18,WSW,238,2.3,2.3,93,0.02,CLR,,0.06,WeatherDisplay:10.37,2013-03-17 13:04:00,
2013-03-17 13:09:00,43.6,41.4,29.18,ESE,114,4.0,4.0,92,0.02,CLR,,0.06,WeatherDisplay:10.37,2013-03-17 13:09:00,
2013-03-17 13:14:00,43.7,41.5,29.17,ESE,108,2.3,2.3,92,0.01,CLR,,0.06,WeatherDisplay:10.37,2013-03-17 13:14:00,
2013-03-17 13:19:00,43.8,41.3,29.17,ESE,102,3.5,3.5,91,0.01,CLR,,0.06,WeatherDisplay:10.37,2013-03-17 13:19:00,
2013-03-17 13:24:00,43.7,41.0,29.17,ENE,74,2.3,2.3,90,0.01,CLR,,0.06,WeatherDisplay:10.37,2013-03-17 13:24:00,
2013-03-17 13:29:00,43.9,41.4,29.17,East,95,1.1,1.1,91,0.01,CLR,,0.06,WeatherDisplay:10.37,2013-03-17 13:29:00,
2013-03-17 13:34:00,44.0,41.3,29.17,ENE,78,2.0,2.0,90,0.01,CLR,,0.06,WeatherDisplay:10.37,2013-03-17 13:34:00,
2013-03-17 13:39:00,43.7,41.0,29.17,NNW,328,4.6,4.6,90,0.00,CLR,,0.06,WeatherDisplay:10.37,2013-03-17 13:39:00,
2013-03-17 13:44:00,43.6,40.9,29.17,East,82,3.5,3.5,90,0.00,CLR,,0.06,WeatherDisplay:10.37,2013-03-17 13:44:00,
2013-03-17 13:49:00,43.5,40.5,29.17,ESE,102,3.5,3.5,89,0.00,CLR,,0.06,WeatherDisplay:10.37,2013-03-17 13:49:00,
2013-03-17 13:54:00,43.4,40.1,29.16,ENE,61,3.5,3.5,88,0.00,CLR,,0.06,WeatherDisplay:10.37,2013-03-17 13:54:00,
2013-03-17 13:59:00,43.3,40.0,29.16,East,95,5.0,5.0,88,0.00,CLR,,0.06,WeatherDisplay:10.37,2013-03-17 13:59:00,
2013-03-17 14:04:00,43.2,39.9,29.16,East,82,0.0,0.0,88,0.00,CLR,,0.06,WeatherDisplay:10.37,2013-03-17 14:04:00,
2013-03-17 14:09:00,43.2,40.2,29.16,NE,46,3.5,3.5,89,0.00,CLR,,0.06,WeatherDisplay:10.37,2013-03-17 14:09:00,
2013-03-17 14:14:00,43.1,40.1,29.16,ENE,58,1.1,1.1,89,0.00,CLR,,0.06,WeatherDisplay:10.37,2013-03-17 14:14:00,
2013-03-17 14:19:00,43.1,40.1,29.16,East,92,0.0,0.0,89,0.00,CLR,,0.06,WeatherDisplay:10.37,2013-03-17 14:19:00,
2013-03-17 14:24:00,43.1,40.4,29.16,NE,50,1.1,0.0,90,0.00,CLR,,0.06,WeatherDisplay:10.37,2013-03-17 14:24:00,
2013-03-17 14:29:00,43.1,40.4,29.16,ESE,104,2.3,2.3,90,0.00,CLR,,0.06,WeatherDisplay:10.37,2013-03-17 14:29:00,
2013-03-17 14:34:00,43.1,40.4,29.16,ESE,105,0.0,0.0,90,0.00,CLR,,0.06,WeatherDisplay:10.37,2013-03-17 14:34:00,
2013-03-17 14:39:00,43.2,40.5,29.16,ENE,71,0.0,0.0,90,0.00,CLR,,0.06,WeatherDisplay:10.37,2013-03-17 14:39:00,
2013-03-17 14:44:00,43.1,40.4,29.16,ENE,65,0.0,0.0,90,0.00,CLR,,0.06,WeatherDisplay:10.37,2013-03-17 14:44:00,
2013-03-17 14:49:00,42.7,40.0,29.16,NNW,346,2.3,2.3,90,0.02,RA,,0.09,WeatherDisplay:10.37,2013-03-17 14:49:00,
2013-03-17 14:54:00,42.0,39.6,29.16,ENE,72,1.1,0.0,91,0.04,RA,,0.09,WeatherDisplay:10.37,2013-03-17 14:54:00,
2013-03-17 14:59:00,41.6,39.4,29.16,SSW,205,0.0,0.0,92,0.04,RA,,0.10,WeatherDisplay:10.37,2013-03-17 14:59:00,
2013-03-17 15:04:00,41.5,39.3,29.16,South,190,0.0,0.0,92,0.05,RA,,0.10,WeatherDisplay:10.37,2013-03-17 15:04:00,
2013-03-17 15:09:00,41.5,39.6,29.16,South,190,0.0,0.0,93,0.06,RA,,0.11,WeatherDisplay:10.37,2013-03-17 15:09:00,
2013-03-17 15:14:00,41.5,39.6,29.16,WSW,250,0.0,0.0,93,0.06,RA,,0.12,WeatherDisplay:10.37,2013-03-17 15:14:00,
2013-03-17 15:19:00,41.6,39.7,29.16,WSW,250,0.0,0.0,93,0.06,RA,,0.12,WeatherDisplay:10.37,2013-03-17 15:19:00,
2013-03-17 15:24:00,41.3,39.4,29.16,WNW,302,0.0,0.0,93,0.06,CLR,,0.12,WeatherDisplay:10.37,2013-03-17 15:24:00,
2013-03-17 15:29:00,41.4,39.5,29.16,WNW,302,0.0,0.0,93,0.06,CLR,,0.13,WeatherDisplay:10.37,2013-03-17 15:29:00,
2013-03-17 15:34:00,41.3,39.4,29.16,WNW,302,0.0,0.0,93,0.07,RA,,0.13,WeatherDisplay:10.37,2013-03-17 15:34:00,
2013-03-17 15:39:00,41.3,39.4,29.16,WNW,297,0.0,0.0,93,0.07,RA,,0.13,WeatherDisplay:10.37,2013-03-17 15:39:00,
2013-03-17 15:44:00,41.2,39.3,29.16,NW,305,0.0,0.0,93,0.07,CLR,,0.13,WeatherDisplay:10.37,2013-03-17 15:44:00,
2013-03-17 15:49:00,41.2,39.3,29.16,WSW,240,1.1,1.1,93,0.05,CLR,,0.13,WeatherDisplay:10.37,2013-03-17 15:49:00,
2013-03-17 15:54:00,41.0,39.1,29.16,WSW,238,0.0,0.0,93,0.04,RA,,0.13,WeatherDisplay:10.37,2013-03-17 15:54:00,
2013-03-17 15:59:00,40.9,39.0,29.16,ESE,108,2.3,0.0,93,0.04,RA,,0.13,WeatherDisplay:10.37,2013-03-17 15:59:00,
2013-03-17 16:04:00,40.7,38.8,29.16,NW,315,1.1,0.0,93,0.04,RA,,0.14,WeatherDisplay:10.37,2013-03-17 16:04:00,
2013-03-17 16:09:00,40.6,38.7,29.16,West,281,1.1,1.1,93,0.03,RA,,0.14,WeatherDisplay:10.37,2013-03-17 16:09:00,
2013-03-17 16:14:00,40.4,38.5,29.16,West,281,0.0,0.0,93,0.03,RA,,0.15,WeatherDisplay:10.37,2013-03-17 16:14:00,
2013-03-17 16:19:00,40.3,38.4,29.16,West,281,0.0,0.0,93,0.03,RA,,0.15,WeatherDisplay:10.37,2013-03-17 16:19:00,
2013-03-17 16:24:00,40.3,38.4,29.16,NW,315,1.1,1.1,93,0.03,CLR,,0.15,WeatherDisplay:10.37,2013-03-17 16:24:00,
2013-03-17 16:29:00,40.2,38.6,29.16,NW,315,0.0,0.0,94,0.03,CLR,,0.15,WeatherDisplay:10.37,2013-03-17 16:29:00,
2013-03-17 16:34:00,40.3,38.7,29.16,NW,315,0.0,0.0,94,0.02,CLR,,0.15,WeatherDisplay:10.37,2013-03-17 16:34:00,
2013-03-17 16:39:00,40.5,38.9,29.16,NW,315,0.0,0.0,94,0.03,RA,,0.16,WeatherDisplay:10.37,2013-03-17 16:39:00,
2013-03-17 16:44:00,40.6,39.0,29.16,NW,315,0.0,0.0,94,0.03,RA,,0.16,WeatherDisplay:10.37,2013-03-17 16:44:00,
2013-03-17 16:49:00,40.6,39.0,29.16,NW,315,1.1,1.1,94,0.03,CLR,,0.16,WeatherDisplay:10.37,2013-03-17 16:49:00,
2013-03-17 16:54:00,40.7,39.1,29.16,NW,315,0.0,0.0,94,0.02,CLR,,0.16,WeatherDisplay:10.37,2013-03-17 16:54:00,
2013-03-17 16:59:00,40.7,39.1,29.16,NW,315,0.0,0.0,94,0.02,CLR,,0.16,WeatherDisplay:10.37,2013-03-17 16:59:00,
2013-03-17 17:04:00,40.6,39.0,29.16,NW,319,0.0,0.0,94,0.02,CLR,,0.16,WeatherDisplay:10.37,2013-03-17 17:04:00,
2013-03-17 17:09:00,40.7,39.1,29.16,WSW,257,0.0,0.0,94,0.02,CLR,,0.16,WeatherDisplay:10.37,2013-03-17 17:09:00,
2013-03-17 17:14:00,40.7,39.1,29.16,NNW,340,0.0,0.0,94,0.02,RA,,0.17,WeatherDisplay:10.37,2013-03-17 17:14:00,
2013-03-17 17:19:00,40.6,39.0,29.16,NNW,339,0.0,0.0,94,0.02,RA,,0.17,WeatherDisplay:10.37,2013-03-17 17:19:00,
2013-03-17 17:24:00,40.5,38.9,29.16,WSW,256,0.0,0.0,94,0.02,CLR,,0.17,WeatherDisplay:10.37,2013-03-17 17:24:00,
2013-03-17 17:29:00,40.4,38.8,29.16,West,271,0.0,0.0,94,0.02,CLR,,0.17,WeatherDisplay:10.37,2013-03-17 17:29:00,
2013-03-17 17:34:00,40.3,38.7,29.16,WSW,245,0.0,0.3,94,0.02,CLR,,0.17,WeatherDisplay:10.37,2013-03-17 17:34:00,
2013-03-17 17:39:00,40.3,38.7,29.16,WSW,245,1.1,1.1,94,0.01,CLR,,0.17,WeatherDisplay:10.37,2013-03-17 17:39:00,
2013-03-17 17:44:00,40.2,38.6,29.17,WSW,245,0.0,0.0,94,0.01,CLR,,0.17,WeatherDisplay:10.37,2013-03-17 17:44:00,
2013-03-17 17:49:00,40.1,38.5,29.17,WSW,245,1.1,0.0,94,0.01,CLR,,0.17,WeatherDisplay:10.37,2013-03-17 17:49:00,
2013-03-17 17:54:00,40.1,38.5,29.17,WSW,245,0.0,0.0,94,0.01,CLR,,0.17,WeatherDisplay:10.37,2013-03-17 17:54:00,
2013-03-17 17:59:00,40.0,38.7,29.17,WSW,250,1.1,1.1,95,0.01,CLR,,0.17,WeatherDisplay:10.37,2013-03-17 17:59:00,
2013-03-17 18:04:00,39.9,38.6,29.17,West,266,0.0,0.0,95,0.01,CLR,,0.17,WeatherDisplay:10.37,2013-03-17 18:04:00,
2013-03-17 18:09:00,39.8,38.5,29.17,NNW,330,0.0,0.0,95,0.01,CLR,,0.17,WeatherDisplay:10.37,2013-03-17 18:09:00,
2013-03-17 18:14:00,39.8,38.5,29.17,NNW,330,0.0,0.0,95,0.00,CLR,,0.17,WeatherDisplay:10.37,2013-03-17 18:14:00,
2013-03-17 18:19:00,39.8,38.5,29.17,NNW,330,0.0,0.0,95,0.00,CLR,,0.17,WeatherDisplay:10.37,2013-03-17 18:19:00,
2013-03-17 18:24:00,39.8,38.5,29.17,NNW,330,0.0,0.0,95,0.00,CLR,,0.17,WeatherDisplay:10.37,2013-03-17 18:24:00,
2013-03-17 18:29:00,39.8,38.5,29.17,NNW,330,0.0,0.0,95,0.00,CLR,,0.17,WeatherDisplay:10.37,2013-03-17 18:29:00,
2013-03-17 18:34:00,39.8,38.8,29.17,North,356,3.0,3.0,96,0.00,CLR,,0.17,WeatherDisplay:10.37,2013-03-17 18:34:00,
2013-03-17 18:39:00,39.6,38.3,29.17,NNW,340,2.3,2.3,95,0.00,CLR,,0.17,WeatherDisplay:10.37,2013-03-17 18:39:00,
2013-03-17 18:44:00,39.4,38.1,29.17,NW,316,1.1,0.0,95,0.00,CLR,,0.17,WeatherDisplay:10.37,2013-03-17 18:44:00,
2013-03-17 18:49:00,39.3,38.0,29.17,SW,229,2.3,2.3,95,0.00,CLR,,0.17,WeatherDisplay:10.37,2013-03-17 18:49:00,
2013-03-17 18:54:00,39.3,38.0,29.18,NE,46,0.0,0.5,95,0.00,CLR,,0.17,WeatherDisplay:10.37,2013-03-17 18:54:00,
2013-03-17 18:59:00,39.2,37.9,29.18,NE,47,1.1,1.1,95,0.00,CLR,,0.17,WeatherDisplay:10.37,2013-03-17 18:59:00,
2013-03-17 19:04:00,39.1,37.8,29.18,WNW,284,1.1,1.1,95,0.00,CLR,,0.17,WeatherDisplay:10.37,2013-03-17 19:04:00,
2013-03-17 19:09:00,39.1,37.8,29.18,WSW,253,1.1,1.1,95,0.00,CLR,,0.17,WeatherDisplay:10.37,2013-03-17 19:09:00,
2013-03-17 19:14:00,39.0,37.7,29.18,WSW,242,0.0,0.0,95,0.00,CLR,,0.17,WeatherDisplay:10.37,2013-03-17 19:14:00,
2013-03-17 19:19:00,39.0,38.0,29.18,West,280,0.0,0.0,96,0.00,CLR,,0.17,WeatherDisplay:10.37,2013-03-17 19:19:00,
2013-03-17 19:24:00,39.0,38.0,29.18,WSW,239,2.3,2.3,96,0.00,CLR,,0.17,WeatherDisplay:10.37,2013-03-17 19:24:00,
2013-03-17 19:29:00,39.0,38.0,29.19,WSW,250,0.0,0.2,96,0.00,CLR,,0.17,WeatherDisplay:10.37,2013-03-17 19:29:00,
2013-03-17 19:34:00,38.9,37.6,29.19,NNW,339,3.5,3.5,95,0.00,CLR,,0.17,WeatherDisplay:10.37,2013-03-17 19:34:00,
2013-03-17 19:39:00,38.8,37.5,29.19,West,271,1.1,1.1,95,0.00,CLR,,0.17,WeatherDisplay:10.37,2013-03-17 19:39:00,
2013-03-17 19:44:00,38.8,37.8,29.19,West,271,1.0,1.0,96,0.00,CLR,,0.17,WeatherDisplay:10.37,2013-03-17 19:44:00,
2013-03-17 19:49:00,38.8,37.8,29.19,West,273,1.1,1.1,96,0.00,CLR,,0.17,WeatherDisplay:10.37,2013-03-17 19:49:00,
2013-03-17 19:54:00,38.8,37.8,29.19,West,266,1.1,1.1,96,0.00,CLR,,0.17,WeatherDisplay:10.37,2013-03-17 19:54:00,
2013-03-17 19:59:00,38.7,37.7,29.19,North,5,1.1,1.1,96,0.00,CLR,,0.17,WeatherDisplay:10.37,2013-03-17 19:59:00,
2013-03-17 20:04:00,38.6,37.6,29.19,SW,235,2.0,2.0,96,0.00,CLR,,0.17,WeatherDisplay:10.37,2013-03-17 20:04:00,
2013-03-17 20:09:00,38.5,37.5,29.19,WSW,257,0.0,0.0,96,0.00,CLR,,0.17,WeatherDisplay:10.37,2013-03-17 20:09:00,
2013-03-17 20:14:00,38.4,37.1,29.20,WNW,287,1.1,0.0,95,0.00,CLR,,0.17,WeatherDisplay:10.37,2013-03-17 20:14:00,
2013-03-17 20:19:00,38.3,37.0,29.20,WSW,255,3.5,3.5,95,0.00,CLR,,0.17,WeatherDisplay:10.37,2013-03-17 20:19:00,
2013-03-17 20:24:00,38.1,36.8,29.20,West,276,3.5,3.5,95,0.00,CLR,,0.17,WeatherDisplay:10.37,2013-03-17 20:24:00,
2013-03-17 20:29:00,38.0,36.7,29.20,WSW,257,1.1,1.3,95,0.00,CLR,,0.17,WeatherDisplay:10.37,2013-03-17 20:29:00,
2013-03-17 20:34:00,37.9,36.6,29.20,West,280,3.5,3.5,95,0.00,CLR,,0.17,WeatherDisplay:10.37,2013-03-17 20:34:00,
2013-03-17 20:39:00,37.8,36.5,29.20,NW,315,2.3,2.3,95,0.00,CLR,,0.17,WeatherDisplay:10.37,2013-03-17 20:39:00,
2013-03-17 20:44:00,37.7,36.4,29.20,SW,231,1.1,1.1,95,0.00,CLR,,0.17,WeatherDisplay:10.37,2013-03-17 20:44:00,
2013-03-17 20:49:00,37.6,36.3,29.20,West,271,2.3,2.3,95,0.00,CLR,,0.17,WeatherDisplay:10.37,2013-03-17 20:49:00,
2013-03-17 20:54:00,37.5,36.2,29.20,WNW,300,2.3,2.3,95,0.00,CLR,,0.17,WeatherDisplay:10.37,2013-03-17 20:54:00,
2013-03-17 20:59:00,37.3,36.0,29.20,SW,222,3.5,3.5,95,0.00,CLR,,0.17,WeatherDisplay:10.37,2013-03-17 20:59:00,
2013-03-17 21:04:00,37.3,36.0,29.20,WNW,293,1.1,0.0,95,0.00,CLR,,0.17,WeatherDisplay:10.37,2013-03-17 21:04:00,
2013-03-17 21:09:00,37.1,35.8,29.21,NNW,335,1.1,0.0,95,0.00,CLR,,0.17,WeatherDisplay:10.37,2013-03-17 21:09:00,
2013-03-17 21:14:00,37.0,35.7,29.21,NNW,330,0.0,0.0,95,0.00,CLR,,0.17,WeatherDisplay:10.37,2013-03-17 21:14:00,
2013-03-17 21:19:00,36.8,35.5,29.21,West,266,2.3,0.0,95,0.00,CLR,,0.17,WeatherDisplay:10.37,2013-03-17 21:19:00,
2013-03-17 21:24:00,36.6,35.3,29.21,West,269,1.1,0.0,95,0.00,CLR,,0.17,WeatherDisplay:10.37,2013-03-17 21:24:00,
2013-03-17 21:29:00,36.4,35.1,29.21,West,269,0.0,0.0,95,0.00,CLR,,0.17,WeatherDisplay:10.37,2013-03-17 21:29:00,
2013-03-17 21:34:00,36.2,35.2,29.21,NNW,338,1.1,1.1,96,0.00,CLR,,0.17,WeatherDisplay:10.37,2013-03-17 21:34:00,
2013-03-17 21:39:00,36.0,35.0,29.21,NNW,337,0.0,0.0,96,0.00,CLR,,0.17,WeatherDisplay:10.37,2013-03-17 21:39:00,
2013-03-17 21:44:00,35.8,34.8,29.21,NNW,338,0.0,0.0,96,0.00,CLR,,0.17,WeatherDisplay:10.37,2013-03-17 21:44:00,
2013-03-17 21:49:00,35.7,34.7,29.21,NNW,337,0.0,0.0,96,0.00,CLR,,0.17,WeatherDisplay:10.37,2013-03-17 21:49:00,
2013-03-17 21:54:00,35.5,34.5,29.21,WNW,285,1.1,0.0,96,0.00,CLR,,0.17,WeatherDisplay:10.37,2013-03-17 21:54:00,
2013-03-17 21:59:00,35.4,34.4,29.21,WNW,285,0.0,0.0,96,0.00,CLR,,0.17,WeatherDisplay:10.37,2013-03-17 21:59:00,
2013-03-17 22:04:00,35.3,34.3,29.22,WNW,285,0.0,0.0,96,0.00,CLR,,0.17,WeatherDisplay:10.37,2013-03-17 22:04:00,
2013-03-17 22:09:00,35.1,34.1,29.22,WNW,285,0.0,0.0,96,0.00,CLR,,0.17,WeatherDisplay:10.37,2013-03-17 22:09:00,
2013-03-17 22:14:00,34.9,33.9,29.22,WNW,285,0.0,0.0,96,0.00,CLR,,0.17,WeatherDisplay:10.37,2013-03-17 22:14:00,
2013-03-17 22:19:00,34.7,33.7,29.22,WNW,284,0.0,0.0,96,0.00,CLR,,0.17,WeatherDisplay:10.37,2013-03-17 22:19:00,
2013-03-17 22:24:00,34.7,33.7,29.22,East,95,1.1,0.0,96,0.00,CLR,,0.17,WeatherDisplay:10.37,2013-03-17 22:24:00,
2013-03-17 22:29:00,34.5,33.7,29.22,East,94,0.0,0.0,97,0.00,CLR,,0.17,WeatherDisplay:10.37,2013-03-17 22:29:00,
2013-03-17 22:34:00,34.4,33.6,29.22,NW,326,0.0,0.0,97,0.00,CLR,,0.17,WeatherDisplay:10.37,2013-03-17 22:34:00,
2013-03-17 22:39:00,34.4,33.6,29.22,NW,326,0.0,0.0,97,0.00,CLR,,0.17,WeatherDisplay:10.37,2013-03-17 22:39:00,
2013-03-17 22:44:00,34.2,33.4,29.22,NNW,329,0.0,0.0,97,0.00,CLR,,0.17,WeatherDisplay:10.37,2013-03-17 22:44:00,
2013-03-17 22:49:00,34.1,33.3,29.22,NNW,330,0.0,0.0,97,0.00,CLR,,0.17,WeatherDisplay:10.37,2013-03-17 22:49:00,
2013-03-17 22:54:00,34.0,33.2,29.22,ESE,115,0.0,0.0,97,0.00,CLR,,0.17,WeatherDisplay:10.37,2013-03-17 22:54:00,
2013-03-17 22:59:00,33.8,33.0,29.22,ESE,114,0.0,0.0,97,0.00,CLR,,0.17,WeatherDisplay:10.37,2013-03-17 22:59:00,
2013-03-17 23:04:00,33.6,32.8,29.22,ESE,114,0.0,0.0,97,0.00,CLR,,0.17,WeatherDisplay:10.37,2013-03-17 23:04:00,
2013-03-17 23:09:00,33.4,32.6,29.22,ESE,115,0.0,0.0,97,0.00,CLR,,0.17,WeatherDisplay:10.37,2013-03-17 23:09:00,
2013-03-17 23:14:00,33.2,32.4,29.22,ESE,114,0.0,0.0,97,0.00,CLR,,0.17,WeatherDisplay:10.37,2013-03-17 23:14:00,
2013-03-17 23:19:00,32.9,32.1,29.22,ESE,114,0.0,0.0,97,0.00,CLR,,0.17,WeatherDisplay:10.37,2013-03-17 23:19:00,
2013-03-17 23:24:00,32.7,31.9,29.22,ESE,114,0.0,0.0,97,0.00,CLR,,0.17,WeatherDisplay:10.37,2013-03-17 23:24:00,
2013-03-17 23:29:00,32.4,31.6,29.22,ESE,115,0.0,0.0,97,0.00,CLR,,0.17,WeatherDisplay:10.37,2013-03-17 23:29:00,
2013-03-17 23:34:00,32.1,31.3,29.22,ESE,114,0.0,0.0,97,0.00,CLR,,0.17,WeatherDisplay:10.37,2013-03-17 23:34:00,
2013-03-17 23:39:00,31.9,31.1,29.22,ESE,114,0.0,0.0,97,0.00,CLR,,0.17,WeatherDisplay:10.37,2013-03-17 23:39:00,
2013-03-17 23:44:00,31.7,30.9,29.22,ESE,114,0.0,0.0,97,0.00,CLR,,0.17,WeatherDisplay:10.37,2013-03-17 23:44:00,
2013-03-17 23:49:00,31.6,30.8,29.22,ESE,115,0.0,0.0,97,0.00,CLR,,0.17,WeatherDisplay:10.37,2013-03-17 23:49:00,
2013-03-17 23:54:00,31.6,30.8,29.22,ESE,114,0.0,0.0,97,0.00,CLR,,0.17,WeatherDisplay:10.37,2013-03-17 23:54:00,
2013-03-17 23:59:00,31.4,30.6,29.22,ESE,114,0.0,0.0,97,0.00,CLR,,0.17,WeatherDisplay:10.37,2013-03-17 23:59:00,